CW2718 Weather Reports


time (UTC)temp
C
wind
direction
speed
KPH
gust
KPH
rain 1hr
cm
rain 24hr
cm
rain mn
cm
humidity
%
barometer
mb
20260504021132 10 257 0.0 0.0 0.00 0.00 0.00 49 1012.0
20260504020132 10 257 0.0 0.0 0.00 0.00 0.00 47 1011.8
20260504015131 11 257 0.0 0.0 0.00 0.00 0.00 46 1011.7
20260504014132 11 257 0.0 0.0 0.00 0.00 0.00 46 1011.7
20260504012132 11 257 0.0 0.0 0.00 0.00 0.00 43 1011.6
20260504011131 12 257 0.0 0.0 0.00 0.00 0.00 43 1011.5
20260504010132 12 257 0.0 0.0 0.00 0.00 0.00 42 1011.4
20260504005131 12 257 0.0 0.0 0.00 0.00 0.00 41 1011.3
20260504004131 12 257 0.0 0.0 0.00 0.00 0.00 40 1011.2
20260504003131 13 257 0.0 0.0 0.00 0.00 0.00 39 1011.1
20260504002131 13 258 0.0 0.0 0.00 0.00 0.00 39 1010.9
20260504001131 13 258 0.0 0.0 0.00 0.00 0.00 38 1010.8
20260504000131 13 232 0.0 0.0 0.00 0.00 0.00 37 1010.7
20260503235131 14 246 0.0 0.0 0.00 0.00 0.00 36 1010.6
20260503234131 14 246 0.0 0.0 0.00 0.00 0.00 35 1010.5
20260503232131 15 268 0.0 9.7 0.00 0.00 0.00 34 1010.4
20260503231131 15 277 0.0 4.8 0.00 0.00 0.00 33 1010.5
20260503230131 15 296 0.0 14.5 0.00 0.00 0.00 32 1010.3
20260503225131 15 265 0.0 22.5 0.00 0.00 0.00 32 1010.3
20260503224130 15 259 12.9 22.5 0.00 0.00 0.00 31 1010.4
20260503223131 15 222 9.7 20.9 0.00 0.00 0.00 31 1010.3
20260503222131 15 266 3.2 24.1 0.00 0.00 0.00 31 1010.2
20260503220131 15 238 4.8 20.9 0.00 0.00 0.00 30 1010.2
20260503214131 15 254 0.0 22.5 0.00 0.00 0.00 30 1010.1
20260503212131 15 253 8.0 19.3 0.00 0.00 0.00 31 1010.2
20260503211131 16 223 6.4 24.1 0.00 0.00 0.00 30 1010.1
20260503210131 15 256 14.5 27.4 0.00 0.00 0.00 31 1010.2
20260503205131 15 235 4.8 14.5 0.00 0.00 0.00 32 1010.3
20260503202131 15 242 0.0 20.9 0.00 0.00 0.00 31 1010.5
20260503201132 15 246 0.0 20.9 0.00 0.00 0.00 33 1010.4
20260503200130 14 232 8.0 20.9 0.00 0.00 0.00 33 1010.4
20260503195131 15 263 4.8 25.7 0.00 0.00 0.00 33 1010.7
20260503194130 15 269 0.0 25.7 0.00 0.00 0.00 32 1010.7
20260503193130 15 285 11.3 16.1 0.00 0.00 0.00 34 1010.8
20260503192132 15 277 1.6 16.1 0.00 0.00 0.00 32 1011.1
20260503190131 14 236 4.8 20.9 0.00 0.00 0.00 35 1011.1
20260503185130 13 265 11.3 25.7 0.00 0.00 0.00 33 1011.0
20260503184131 14 284 9.7 32.2 0.00 0.00 0.00 31 1011.4
20260503183130 14 222 17.7 30.6 0.00 0.00 0.00 33 1011.5
20260503182131 15 257 8.0 30.6 0.00 0.00 0.00 36 1011.6
20260503181131 13 325 8.0 29.0 0.00 0.00 0.00 35 1011.4
20260503180130 13 281 16.1 35.4 0.00 0.00 0.00 34 1011.4
20260503175131 13 323 0.0 27.4 0.00 0.00 0.00 36 1011.4
20260503174131 13 247 6.4 22.5 0.00 0.00 0.00 35 1011.6
20260503173130 13 273 9.7 35.4 0.00 0.00 0.00 34 1011.7
20260503171130 12 296 0.0 20.9 0.00 0.00 0.00 37 1011.7
20260503170130 12 264 3.2 20.9 0.00 0.00 0.00 38 1011.7